Regional Weather Roundup
Issued by NWS

Home | Current Version | Previous Version | Text Only | Print | Product List | Glossary On
Versions: 1 2 3 4 5 6 7 8 9 10 11 12 13 14 15 16 17 18 19 20 21 22 23 24 25 26 27 28 29 30 31 32 33 34 35 36 37 38 39 40 41 42 43 44 45 46 47 48 49 50
818
ASUS45 KBOI 251510
RWRID

IDAHO REGIONAL WEATHER ROUNDUP
NATIONAL WEATHER SERVICE BOISE ID
900 AM MDT SUN JUN 25 2017

NOTE: "FAIR" INDICATES FEW OR NO CLOUDS BELOW 12000 FEET
WITH NO SIGNIFICANT WEATHER AND/OR OBSTRUCTIONS TO VISIBILITY

IDZ012-014-251600-
SOUTHWEST IDAHO


CITY           SKY/WX    TMP DP  RH WIND       PRES   REMARKS
BOISE          SUNNY     72  42  34 SE12      30.14R
CALDWELL       SUNNY     69  49  48 E3        30.13R
MOUNTAIN HOME  SUNNY     70  37  29 E16       30.15R
$$

IDZ016-017-251600-
SOUTHCENTRAL IDAHO


CITY           SKY/WX    TMP DP  RH WIND       PRES   REMARKS
BURLEY         SUNNY     64  45  49 NE8       30.22S
JEROME         SUNNY     70  40  33 NE9       30.22R
TWIN FALLS     SUNNY     68  45  43 CALM      30.22R
$$

IDZ019>023-251600-
SOUTHEAST IDAHO


CITY           SKY/WX    TMP DP  RH WIND       PRES   REMARKS
IDAHO FALLS    SUNNY     63  47  55 N7        30.29R
POCATELLO      SUNNY     62  47  57 NW3       30.27R
REXBURG        SUNNY     60  46  59 E5        30.30S
$$

IDZ006-010-011-018-031-032-251600-
CENTRAL IDAHO MOUNTAINS


CITY           SKY/WX    TMP DP  RH WIND       PRES   REMARKS
MCCALL         SUNNY     59  41  51 S3        30.24S
HAILEY         SUNNY     63  39  42 NW9G16    30.31S
STANLEY          N/A     52  38  58 CALM      30.39S
SALMON         SUNNY     57  43  58 CALM      30.29F
CHALLIS        SUNNY     60  37  42 E3        30.32S
$$

IDZ002-004-006-007-026-251600-
NORTHERN IDAHO


CITY           SKY/WX    TMP DP  RH WIND       PRES   REMARKS
LEWISTON       SUNNY     68  51  54 NE6       30.10S
LOWELL           N/A     57  51  80 N3        30.17F
COEUR D`ALENE  SUNNY     67  47  48 NE13      30.16S
MULLAN PASS    SUNNY     59  35  40 SE9G17    30.33S
$$




USA.gov is the U.S. government's official web portal to all federal, state and local government web resources and services.